STARLINK-3280 (50184 NORAD) Tracking and Keplerian Element Data
This shows tracking and keplerian element data for the satellite.
Feedback or suggestion? Click here.
Element | Value |
Catalog | 50184 |
Name | STARLINK-3280 |
Epoch Orbit | 444 |
Epoch Day | 362.77756915 |
Epoch Year | 2021 |
RAAN | 314.7233 |
Inclination | 53.215 |
Eccentricity | 0.0059346 |
Argument of Perigee | 188.0665 |
Mean Anonmoly | 171.9426 |
Mean Motion | 16.17012138 |
Decay Rate | 0.01460207 |
L1 | 1 50184U 21125AE 21362.77756915 .01460207 11653-4 64938-3 0 9993 |
L2 | 2 50184 53.2150 314.7233 0059346 188.0665 171.9426 16.17012138 4442 |
Live tracking and technical data element details for STARLINK-3280 (NORAD 50184). STARLINK-3280 can be tracked NOW for your location showing map with azimuth and elevation plus other details from your city location.
Track the satellite on the map from your city or location and see movement details for azimuth, elevation, latitude, longitude, range, height, and movement on the map or in text.
IsCatalogInMostPopularTable: catalog: 50184, numindb: 24
Update: records affected: 1
GetName: 50184 STARLINK-3280
Hit Count: updated at: Mon, 23 May 2022 21:06:20 GMT